TimePDT,TemperatureF,Dew PointF,Humidity,Sea Level PressureIn,VisibilityMPH,Wind Direction,Wind SpeedMPH,Gust SpeedMPH,PrecipitationIn,Events,Conditions,WindDirDegrees,DateUTC
12:54 AM,51.1,35.1,54,30.00,10.0,East,5.8,-,N/A,,Clear,90,2014-03-19 07:54:00
1:54 AM,51.1,34.0,52,30.01,10.0,SSE,4.6,-,N/A,,Clear,150,2014-03-19 08:54:00
2:54 AM,48.9,34.0,56,30.02,10.0,Calm,Calm,-,N/A,,Clear,0,2014-03-19 09:54:00
3:54 AM,48.9,39.0,69,30.01,10.0,SE,3.5,-,N/A,,Clear,140,2014-03-19 10:54:00
4:54 AM,48.0,35.1,61,30.00,10.0,East,8.1,-,N/A,,Clear,90,2014-03-19 11:54:00
5:54 AM,46.0,35.1,66,30.01,10.0,SE,3.5,-,N/A,,Clear,130,2014-03-19 12:54:00
6:54 AM,46.9,36.0,66,30.03,10.0,East,3.5,-,N/A,,Clear,100,2014-03-19 13:54:00
7:54 AM,48.0,36.0,63,30.05,10.0,East,4.6,-,N/A,,Clear,90,2014-03-19 14:54:00
8:54 AM,57.0,37.0,47,30.07,10.0,Calm,Calm,-,N/A,,Clear,0,2014-03-19 15:54:00
9:54 AM,61.0,42.1,50,30.08,9.0,Calm,Calm,-,N/A,,Clear,0,2014-03-19 16:54:00
10:54 AM,64.9,39.0,39,30.09,10.0,NW,3.5,-,N/A,,Clear,310,2014-03-19 17:54:00
11:54 AM,70.0,37.0,30,30.10,10.0,West,5.8,-,N/A,,Clear,280,2014-03-19 18:54:00
12:54 PM,69.1,39.9,35,30.10,10.0,WNW,5.8,-,N/A,,Clear,300,2014-03-19 19:54:00
1:54 PM,70.0,42.1,36,30.08,10.0,NW,6.9,-,N/A,,Clear,320,2014-03-19 20:54:00
2:54 PM,75.0,30.9,20,30.06,10.0,SSW,11.5,18.4,N/A,,Clear,210,2014-03-19 21:54:00
3:54 PM,71.1,33.1,25,30.07,10.0,SW,15.0,-,N/A,,Clear,230,2014-03-19 22:54:00
4:54 PM,64.9,46.0,50,30.07,10.0,WNW,5.8,-,N/A,,Clear,300,2014-03-19 23:54:00
5:54 PM,63.0,41.0,45,30.08,10.0,SW,11.5,-,N/A,,Clear,230,2014-03-20 00:54:00
6:54 PM,62.1,39.0,43,30.08,10.0,WSW,4.6,-,N/A,,Clear,240,2014-03-20 01:54:00
7:54 PM,59.0,48.9,69,30.09,10.0,Calm,Calm,-,N/A,,Clear,0,2014-03-20 02:54:00
8:54 PM,55.9,46.0,69,30.10,10.0,Calm,Calm,-,N/A,,Clear,0,2014-03-20 03:54:00
9:54 PM,53.1,42.1,66,30.11,10.0,East,3.5,-,N/A,,Clear,90,2014-03-20 04:54:00
10:54 PM,52.0,42.1,69,30.11,10.0,East,3.5,-,N/A,,Clear,90,2014-03-20 05:54:00
11:54 PM,54.0,43.0,66,30.10,10.0,ESE,4.6,-,N/A,,Clear,110,2014-03-20 06:54:00